Time,TemperatureF,DewpointF,PressureIn,WindDirection,WindDirectionDegrees,WindSpeedMPH,WindSpeedGustMPH,Humidity,HourlyPrecipIn,Conditions,Clouds,dailyrainin,SoftwareType,DateUTC
2013-03-06 00:01:00,28.0,12.0,-100.00,North,-999,-999.0,-999.0,50,-99.99,,,-99.99,,2013-03-06 07:01:00,
2013-03-06 00:11:00,29.0,13.0,-100.00,North,-999,-999.0,-999.0,51,-99.99,,,-99.99,,2013-03-06 07:11:00,
2013-03-06 00:22:00,29.0,13.0,-100.00,North,-999,-999.0,-999.0,51,-99.99,,,-99.99,,2013-03-06 07:22:00,
2013-03-06 00:31:00,29.0,13.0,-100.00,North,-999,-999.0,-999.0,51,-99.99,,,-99.99,,2013-03-06 07:31:00,
2013-03-06 00:42:00,30.0,15.0,-100.00,North,-999,-999.0,-999.0,52,-99.99,,,-99.99,,2013-03-06 07:42:00,
2013-03-06 00:52:00,30.0,15.0,-100.00,North,-999,-999.0,-999.0,52,-99.99,,,-99.99,,2013-03-06 07:52:00,
2013-03-06 01:01:00,30.0,15.0,-100.00,North,-999,-999.0,-999.0,52,-99.99,,,-99.99,,2013-03-06 08:01:00,
2013-03-06 01:11:00,30.0,14.0,-100.00,North,-999,-999.0,-999.0,51,-99.99,,,-99.99,,2013-03-06 08:11:00,
2013-03-06 01:21:00,30.0,14.0,-100.00,North,-999,-999.0,-999.0,51,-99.99,,,-99.99,,2013-03-06 08:21:00,
2013-03-06 01:31:00,30.0,14.0,-100.00,North,-999,-999.0,-999.0,51,-99.99,,,-99.99,,2013-03-06 08:31:00,
2013-03-06 01:42:00,29.0,14.0,-100.00,North,-999,-999.0,-999.0,52,-99.99,,,-99.99,,2013-03-06 08:42:00,
2013-03-06 01:52:00,29.0,14.0,-100.00,North,-999,-999.0,-999.0,53,-99.99,,,-99.99,,2013-03-06 08:52:00,
2013-03-06 02:01:00,29.0,14.0,-100.00,North,-999,-999.0,-999.0,53,-99.99,,,-99.99,,2013-03-06 09:01:00,
2013-03-06 02:12:00,28.0,13.0,-100.00,North,-999,-999.0,-999.0,51,-99.99,,,-99.99,,2013-03-06 09:12:00,
2013-03-06 02:21:00,28.0,13.0,-100.00,North,-999,-999.0,-999.0,51,-99.99,,,-99.99,,2013-03-06 09:21:00,
2013-03-06 02:31:00,28.0,13.0,-100.00,North,-999,-999.0,-999.0,51,-99.99,,,-99.99,,2013-03-06 09:31:00,
2013-03-06 02:41:00,27.0,12.0,-100.00,North,-999,-999.0,-999.0,53,-99.99,,,-99.99,,2013-03-06 09:41:00,
2013-03-06 02:52:00,27.0,12.0,-100.00,North,-999,-999.0,-999.0,53,-99.99,,,-99.99,,2013-03-06 09:52:00,
2013-03-06 03:01:00,28.0,13.0,-100.00,North,-999,-999.0,-999.0,54,-99.99,,,-99.99,,2013-03-06 10:01:00,
2013-03-06 03:11:00,27.0,12.0,-100.00,North,-999,-999.0,-999.0,52,-99.99,,,-99.99,,2013-03-06 10:11:00,
2013-03-06 03:21:00,27.0,12.0,-100.00,North,-999,-999.0,-999.0,52,-99.99,,,-99.99,,2013-03-06 10:21:00,
2013-03-06 03:31:00,27.0,12.0,-100.00,North,-999,-999.0,-999.0,52,-99.99,,,-99.99,,2013-03-06 10:31:00,
2013-03-06 03:41:00,28.0,14.0,-100.00,North,-999,-999.0,-999.0,54,-99.99,,,-99.99,,2013-03-06 10:41:00,
2013-03-06 03:52:00,29.0,13.0,-100.00,North,-999,-999.0,-999.0,52,-99.99,,,-99.99,,2013-03-06 10:52:00,
2013-03-06 04:02:00,29.0,13.0,-100.00,North,-999,-999.0,-999.0,52,-99.99,,,-99.99,,2013-03-06 11:02:00,
2013-03-06 04:11:00,28.0,14.0,-100.00,North,-999,-999.0,-999.0,53,-99.99,,,-99.99,,2013-03-06 11:11:00,
2013-03-06 04:22:00,28.0,14.0,-100.00,North,-999,-999.0,-999.0,53,-99.99,,,-99.99,,2013-03-06 11:22:00,
2013-03-06 04:31:00,28.0,14.0,-100.00,North,-999,-999.0,-999.0,53,-99.99,,,-99.99,,2013-03-06 11:31:00,
2013-03-06 04:42:00,29.0,13.0,-100.00,North,-999,-999.0,-999.0,50,-99.99,,,-99.99,,2013-03-06 11:42:00,
2013-03-06 04:52:00,29.0,13.0,-100.00,North,-999,-999.0,-999.0,50,-99.99,,,-99.99,,2013-03-06 11:52:00,
2013-03-06 05:01:00,29.0,13.0,-100.00,North,-999,-999.0,-999.0,50,-99.99,,,-99.99,,2013-03-06 12:01:00,
2013-03-06 05:11:00,28.0,13.0,-100.00,North,-999,-999.0,-999.0,51,-99.99,,,-99.99,,2013-03-06 12:11:00,
2013-03-06 05:21:00,28.0,13.0,-100.00,North,-999,-999.0,-999.0,51,-99.99,,,-99.99,,2013-03-06 12:21:00,
2013-03-06 05:30:00,28.0,14.0,-100.00,North,-999,-999.0,-999.0,54,-99.99,,,-99.99,,2013-03-06 12:30:00,
2013-03-06 05:32:00,28.0,13.0,-100.00,North,-999,-999.0,-999.0,51,-99.99,,,-99.99,,2013-03-06 12:32:00,
2013-03-06 05:42:00,28.0,13.0,-100.00,North,-999,-999.0,-999.0,53,-99.99,,,-99.99,,2013-03-06 12:42:00,
2013-03-06 05:52:00,28.0,13.0,-100.00,North,-999,-999.0,-999.0,53,-99.99,,,-99.99,,2013-03-06 12:52:00,
2013-03-06 06:02:00,28.0,14.0,-100.00,North,-999,-999.0,-999.0,54,-99.99,,,-99.99,,2013-03-06 13:02:00,
2013-03-06 06:11:00,28.0,14.0,-100.00,North,-999,-999.0,-999.0,54,-99.99,,,-99.99,,2013-03-06 13:11:00,
2013-03-06 06:21:00,28.0,14.0,-100.00,North,-999,-999.0,-999.0,54,-99.99,,,-99.99,,2013-03-06 13:21:00,
2013-03-06 06:42:00,29.0,15.0,-100.00,North,-999,-999.0,-999.0,55,-99.99,,,-99.99,,2013-03-06 13:42:00,
2013-03-06 06:52:00,29.0,15.0,-100.00,North,-999,-999.0,-999.0,55,-99.99,,,-99.99,,2013-03-06 13:52:00,
2013-03-06 07:01:00,29.0,15.0,-100.00,North,-999,-999.0,-999.0,55,-99.99,,,-99.99,,2013-03-06 14:01:00,
2013-03-06 07:11:00,29.0,15.0,-100.00,North,-999,-999.0,-999.0,55,-99.99,,,-99.99,,2013-03-06 14:11:00,
2013-03-06 07:21:00,29.0,15.0,-100.00,North,-999,-999.0,-999.0,55,-99.99,,,-99.99,,2013-03-06 14:21:00,
2013-03-06 07:32:00,29.0,15.0,-100.00,North,-999,-999.0,-999.0,55,-99.99,,,-99.99,,2013-03-06 14:32:00,
2013-03-06 07:41:00,28.0,14.0,-100.00,North,-999,-999.0,-999.0,56,-99.99,,,-99.99,,2013-03-06 14:41:00,
2013-03-06 07:52:00,28.0,14.0,-100.00,North,-999,-999.0,-999.0,56,-99.99,,,-99.99,,2013-03-06 14:52:00,
2013-03-06 08:01:00,28.0,14.0,-100.00,North,-999,-999.0,-999.0,55,-99.99,,,-99.99,,2013-03-06 15:01:00,
2013-03-06 08:11:00,28.0,15.0,-100.00,North,-999,-999.0,-999.0,55,-99.99,,,-99.99,,2013-03-06 15:11:00,
2013-03-06 08:21:00,28.0,15.0,-100.00,North,-999,-999.0,-999.0,55,-99.99,,,-99.99,,2013-03-06 15:21:00,
2013-03-06 08:32:00,28.0,15.0,-100.00,North,-999,-999.0,-999.0,55,-99.99,,,-99.99,,2013-03-06 15:32:00,
2013-03-06 08:42:00,28.0,13.0,-100.00,North,-999,-999.0,-999.0,54,-99.99,,,-99.99,,2013-03-06 15:42:00,
2013-03-06 08:52:00,28.0,13.0,-100.00,North,-999,-999.0,-999.0,54,-99.99,,,-99.99,,2013-03-06 15:52:00,
2013-03-06 09:01:00,28.0,13.0,-100.00,North,-999,-999.0,-999.0,53,-99.99,,,-99.99,,2013-03-06 16:01:00,
2013-03-06 09:11:00,27.0,13.0,-100.00,North,-999,-999.0,-999.0,53,-99.99,,,-99.99,,2013-03-06 16:11:00,
2013-03-06 09:21:00,27.0,13.0,-100.00,North,-999,-999.0,-999.0,53,-99.99,,,-99.99,,2013-03-06 16:21:00,
2013-03-06 09:32:00,27.0,13.0,-100.00,North,-999,-999.0,-999.0,53,-99.99,,,-99.99,,2013-03-06 16:32:00,
2013-03-06 09:41:00,27.0,12.0,-100.00,North,-999,-999.0,-999.0,54,-99.99,,,-99.99,,2013-03-06 16:41:00,
2013-03-06 09:52:00,27.0,12.0,-100.00,North,-999,-999.0,-999.0,54,-99.99,,,-99.99,,2013-03-06 16:52:00,
2013-03-06 10:01:00,27.0,12.0,-100.00,North,-999,-999.0,-999.0,53,-99.99,,,-99.99,,2013-03-06 17:01:00,
2013-03-06 10:11:00,28.0,13.0,-100.00,North,-999,-999.0,-999.0,51,-99.99,,,-99.99,,2013-03-06 17:11:00,
2013-03-06 10:21:00,28.0,13.0,-100.00,North,-999,-999.0,-999.0,51,-99.99,,,-99.99,,2013-03-06 17:21:00,
2013-03-06 10:30:00,32.0,16.0,-100.00,North,-999,-999.0,-999.0,50,-99.99,,,-99.99,,2013-03-06 17:30:00,
2013-03-06 10:31:00,28.0,13.0,-100.00,North,-999,-999.0,-999.0,51,-99.99,,,-99.99,,2013-03-06 17:31:00,
2013-03-06 10:41:00,31.0,15.0,-100.00,North,-999,-999.0,-999.0,52,-99.99,,,-99.99,,2013-03-06 17:41:00,
2013-03-06 10:52:00,31.0,15.0,-100.00,North,-999,-999.0,-999.0,52,-99.99,,,-99.99,,2013-03-06 17:52:00,
2013-03-06 11:01:00,32.0,16.0,-100.00,North,-999,-999.0,-999.0,50,-99.99,,,-99.99,,2013-03-06 18:01:00,
2013-03-06 11:28:00,32.0,16.0,-100.00,North,-999,-999.0,-999.0,50,-99.99,,,-99.99,,2013-03-06 18:28:00,
2013-03-06 11:42:00,33.0,16.0,-100.00,North,-999,-999.0,-999.0,50,-99.99,,,-99.99,,2013-03-06 18:42:00,
2013-03-06 11:52:00,33.0,16.0,-100.00,North,-999,-999.0,-999.0,50,-99.99,,,-99.99,,2013-03-06 18:52:00,
2013-03-06 12:02:00,32.0,17.0,-100.00,North,-999,-999.0,-999.0,51,-99.99,,,-99.99,,2013-03-06 19:02:00,
2013-03-06 12:11:00,33.0,16.0,-100.00,North,-999,-999.0,-999.0,50,-99.99,,,-99.99,,2013-03-06 19:11:00,
2013-03-06 12:21:00,33.0,16.0,-100.00,North,-999,-999.0,-999.0,50,-99.99,,,-99.99,,2013-03-06 19:21:00,
2013-03-06 12:32:00,33.0,16.0,-100.00,North,-999,-999.0,-999.0,50,-99.99,,,-99.99,,2013-03-06 19:32:00,
2013-03-06 12:42:00,33.0,16.0,-100.00,North,-999,-999.0,-999.0,48,-99.99,,,-99.99,,2013-03-06 19:42:00,
2013-03-06 12:53:00,33.0,16.0,-100.00,North,-999,-999.0,-999.0,48,-99.99,,,-99.99,,2013-03-06 19:53:00,
2013-03-06 13:01:00,34.0,16.0,-100.00,North,-999,-999.0,-999.0,47,-99.99,,,-99.99,,2013-03-06 20:01:00,
2013-03-06 13:11:00,35.0,16.0,-100.00,North,-999,-999.0,-999.0,45,-99.99,,,-99.99,,2013-03-06 20:11:00,
2013-03-06 13:22:00,35.0,16.0,-100.00,North,-999,-999.0,-999.0,45,-99.99,,,-99.99,,2013-03-06 20:22:00,
2013-03-06 13:32:00,35.0,16.0,-100.00,North,-999,-999.0,-999.0,45,-99.99,,,-99.99,,2013-03-06 20:32:00,
2013-03-06 13:42:00,34.0,16.0,-100.00,North,-999,-999.0,-999.0,46,-99.99,,,-99.99,,2013-03-06 20:42:00,
2013-03-06 13:52:00,34.0,16.0,-100.00,North,-999,-999.0,-999.0,46,-99.99,,,-99.99,,2013-03-06 20:52:00,
2013-03-06 14:02:00,34.0,16.0,-100.00,North,-999,-999.0,-999.0,48,-99.99,,,-99.99,,2013-03-06 21:02:00,
2013-03-06 14:11:00,34.0,16.0,-100.00,North,-999,-999.0,-999.0,47,-99.99,,,-99.99,,2013-03-06 21:11:00,
2013-03-06 14:22:00,34.0,16.0,-100.00,North,-999,-999.0,-999.0,47,-99.99,,,-99.99,,2013-03-06 21:22:00,
2013-03-06 14:31:00,34.0,16.0,-100.00,North,-999,-999.0,-999.0,47,-99.99,,,-99.99,,2013-03-06 21:31:00,
2013-03-06 14:42:00,36.0,16.0,-100.00,North,-999,-999.0,-999.0,43,-99.99,,,-99.99,,2013-03-06 21:42:00,
2013-03-06 14:52:00,36.0,16.0,-100.00,North,-999,-999.0,-999.0,43,-99.99,,,-99.99,,2013-03-06 21:52:00,
2013-03-06 15:01:00,37.0,16.0,-100.00,North,-999,-999.0,-999.0,42,-99.99,,,-99.99,,2013-03-06 22:01:00,
2013-03-06 15:11:00,38.0,17.0,-100.00,North,-999,-999.0,-999.0,42,-99.99,,,-99.99,,2013-03-06 22:11:00,
2013-03-06 15:21:00,38.0,17.0,-100.00,North,-999,-999.0,-999.0,42,-99.99,,,-99.99,,2013-03-06 22:21:00,
2013-03-06 15:31:00,38.0,17.0,-100.00,North,-999,-999.0,-999.0,42,-99.99,,,-99.99,,2013-03-06 22:31:00,
2013-03-06 15:41:00,36.0,17.0,-100.00,North,-999,-999.0,-999.0,46,-99.99,,,-99.99,,2013-03-06 22:41:00,
2013-03-06 15:52:00,36.0,17.0,-100.00,North,-999,-999.0,-999.0,46,-99.99,,,-99.99,,2013-03-06 22:52:00,
2013-03-06 16:01:00,36.0,18.0,-100.00,North,-999,-999.0,-999.0,46,-99.99,,,-99.99,,2013-03-06 23:01:00,
2013-03-06 16:11:00,35.0,18.0,-100.00,North,-999,-999.0,-999.0,48,-99.99,,,-99.99,,2013-03-06 23:11:00,
2013-03-06 16:21:00,35.0,18.0,-100.00,North,-999,-999.0,-999.0,48,-99.99,,,-99.99,,2013-03-06 23:21:00,
2013-03-06 16:31:00,35.0,18.0,-100.00,North,-999,-999.0,-999.0,48,-99.99,,,-99.99,,2013-03-06 23:31:00,
2013-03-06 16:41:00,34.0,18.0,-100.00,North,-999,-999.0,-999.0,52,-99.99,,,-99.99,,2013-03-06 23:41:00,
2013-03-06 16:52:00,34.0,18.0,-100.00,North,-999,-999.0,-999.0,52,-99.99,,,-99.99,,2013-03-06 23:52:00,
2013-03-06 17:01:00,34.0,18.0,-100.00,North,-999,-999.0,-999.0,51,-99.99,,,-99.99,,2013-03-07 00:01:00,
2013-03-06 17:11:00,34.0,18.0,-100.00,North,-999,-999.0,-999.0,51,-99.99,,,-99.99,,2013-03-07 00:11:00,
2013-03-06 17:21:00,34.0,18.0,-100.00,North,-999,-999.0,-999.0,51,-99.99,,,-99.99,,2013-03-07 00:21:00,
2013-03-06 17:32:00,34.0,18.0,-100.00,North,-999,-999.0,-999.0,51,-99.99,,,-99.99,,2013-03-07 00:32:00,
2013-03-06 17:41:00,33.0,18.0,-100.00,North,-999,-999.0,-999.0,52,-99.99,,,-99.99,,2013-03-07 00:41:00,
2013-03-06 17:52:00,33.0,18.0,-100.00,North,-999,-999.0,-999.0,52,-99.99,,,-99.99,,2013-03-07 00:52:00,
2013-03-06 18:01:00,33.0,18.0,-100.00,North,-999,-999.0,-999.0,52,-99.99,,,-99.99,,2013-03-07 01:01:00,
2013-03-06 18:11:00,33.0,17.0,-100.00,North,-999,-999.0,-999.0,51,-99.99,,,-99.99,,2013-03-07 01:11:00,
2013-03-06 18:21:00,33.0,17.0,-100.00,North,-999,-999.0,-999.0,51,-99.99,,,-99.99,,2013-03-07 01:21:00,
2013-03-06 18:31:00,33.0,17.0,-100.00,North,-999,-999.0,-999.0,51,-99.99,,,-99.99,,2013-03-07 01:31:00,
2013-03-06 18:41:00,33.0,17.0,-100.00,North,-999,-999.0,-999.0,50,-99.99,,,-99.99,,2013-03-07 01:41:00,
2013-03-06 18:52:00,33.0,17.0,-100.00,North,-999,-999.0,-999.0,50,-99.99,,,-99.99,,2013-03-07 01:52:00,
2013-03-06 19:01:00,33.0,16.0,-100.00,North,-999,-999.0,-999.0,48,-99.99,,,-99.99,,2013-03-07 02:01:00,
2013-03-06 19:11:00,33.0,14.0,-100.00,North,-999,-999.0,-999.0,44,-99.99,,,-99.99,,2013-03-07 02:11:00,
2013-03-06 19:21:00,33.0,14.0,-100.00,North,-999,-999.0,-999.0,44,-99.99,,,-99.99,,2013-03-07 02:21:00,
2013-03-06 19:31:00,33.0,14.0,-100.00,North,-999,-999.0,-999.0,44,-99.99,,,-99.99,,2013-03-07 02:31:00,
2013-03-06 19:41:00,33.0,14.0,-100.00,North,-999,-999.0,-999.0,44,-99.99,,,-99.99,,2013-03-07 02:41:00,
2013-03-06 20:01:00,33.0,13.0,-100.00,North,-999,-999.0,-999.0,44,-99.99,,,-99.99,,2013-03-07 03:01:00,
2013-03-06 20:11:00,32.0,15.0,-100.00,North,-999,-999.0,-999.0,48,-99.99,,,-99.99,,2013-03-07 03:11:00,
2013-03-06 20:21:00,32.0,15.0,-100.00,North,-999,-999.0,-999.0,48,-99.99,,,-99.99,,2013-03-07 03:21:00,
2013-03-06 20:31:00,32.0,15.0,-100.00,North,-999,-999.0,-999.0,48,-99.99,,,-99.99,,2013-03-07 03:31:00,
2013-03-06 20:41:00,31.0,19.0,-100.00,North,-999,-999.0,-999.0,60,-99.99,,,-99.99,,2013-03-07 03:41:00,
2013-03-06 20:52:00,31.0,19.0,-100.00,North,-999,-999.0,-999.0,60,-99.99,,,-99.99,,2013-03-07 03:52:00,
2013-03-06 21:01:00,29.0,20.0,-100.00,North,-999,-999.0,-999.0,67,-99.99,,,-99.99,,2013-03-07 04:01:00,
2013-03-06 21:11:00,30.0,18.0,-100.00,North,-999,-999.0,-999.0,59,-99.99,,,-99.99,,2013-03-07 04:11:00,
2013-03-06 21:21:00,30.0,18.0,-100.00,North,-999,-999.0,-999.0,59,-99.99,,,-99.99,,2013-03-07 04:21:00,
2013-03-06 21:31:00,30.0,18.0,-100.00,North,-999,-999.0,-999.0,59,-99.99,,,-99.99,,2013-03-07 04:31:00,
2013-03-06 21:41:00,28.0,21.0,-100.00,North,-999,-999.0,-999.0,73,-99.99,,,-99.99,,2013-03-07 04:41:00,
2013-03-06 21:52:00,28.0,22.0,-100.00,North,-999,-999.0,-999.0,78,-99.99,,,-99.99,,2013-03-07 04:52:00,
2013-03-06 22:01:00,28.0,22.0,-100.00,North,-999,-999.0,-999.0,78,-99.99,,,-99.99,,2013-03-07 05:01:00,
2013-03-06 22:12:00,27.0,23.0,-100.00,North,-999,-999.0,-999.0,83,-99.99,,,-99.99,,2013-03-07 05:12:00,
2013-03-06 22:22:00,27.0,23.0,-100.00,North,-999,-999.0,-999.0,83,-99.99,,,-99.99,,2013-03-07 05:22:00,
2013-03-06 22:31:00,27.0,23.0,-100.00,North,-999,-999.0,-999.0,83,-99.99,,,-99.99,,2013-03-07 05:31:00,
2013-03-06 22:41:00,26.0,25.0,-100.00,North,-999,-999.0,-999.0,97,-99.99,,,-99.99,,2013-03-07 05:41:00,
2013-03-06 22:52:00,26.0,25.0,-100.00,North,-999,-999.0,-999.0,97,-99.99,,,-99.99,,2013-03-07 05:52:00,
2013-03-06 23:01:00,26.0,25.0,-100.00,North,-999,-999.0,-999.0,98,-99.99,,,-99.99,,2013-03-07 06:01:00,
2013-03-06 23:11:00,26.0,25.0,-100.00,North,-999,-999.0,-999.0,97,-99.99,,,-99.99,,2013-03-07 06:11:00,
2013-03-06 23:21:00,26.0,25.0,-100.00,North,-999,-999.0,-999.0,97,-99.99,,,-99.99,,2013-03-07 06:21:00,
2013-03-06 23:31:00,26.0,25.0,-100.00,North,-999,-999.0,-999.0,97,-99.99,,,-99.99,,2013-03-07 06:31:00,
2013-03-06 23:41:00,25.0,25.0,-100.00,North,-999,-999.0,-999.0,97,-99.99,,,-99.99,,2013-03-07 06:41:00,
2013-03-06 23:52:00,25.0,25.0,-100.00,North,-999,-999.0,-999.0,99,-99.99,,,-99.99,,2013-03-07 06:52:00,